| time (UTC) | temp C | wind direction | speed KPH | gust KPH | rain 1hr cm | rain 24hr cm | rain mn cm | humidity % | barometer mb |
| 20260905212034 | 13 | 0.0 | 0.0 | 0.03 | 0.23 | 0.23 | 99 | 1000.6 | |
| 20260905211031 | 13 | 0.0 | 0.0 | 0.03 | 0.23 | 0.23 | 99 | 1000.6 | |
| 20260905210028 | 13 | 0.0 | 0.0 | 0.03 | 0.23 | 0.23 | 99 | 1000.6 | |
| 20260905205025 | 13 | 0.0 | 0.0 | 0.00 | 0.20 | 0.20 | 99 | 1000.5 | |
| 20260905204022 | 13 | 0.0 | 0.0 | 0.00 | 0.20 | 0.20 | 99 | 1000.4 | |
| 20260905203019 | 13 | 0.0 | 0.0 | 0.00 | 0.20 | 0.20 | 99 | 1000.3 | |
| 20260905202036 | 13 | 0.0 | 0.0 | 0.00 | 0.20 | 0.20 | 99 | 1000.2 | |
| 20260905201112 | 13 | 0.0 | 0.0 | 0.00 | 0.20 | 0.20 | 99 | 1000.2 | |
| 20260905200109 | 13 | 0.0 | 0.0 | 0.00 | 0.20 | 0.20 | 99 | 1000.1 | |
| 20260905195106 | 13 | 0.0 | 0.0 | 0.00 | 0.20 | 0.20 | 99 | 1000.1 | |
| 20260905194103 | 13 | 0.0 | 0.0 | 0.00 | 0.20 | 0.20 | 99 | 999.9 | |
| 20260905193100 | 13 | 0.0 | 0.0 | 0.00 | 0.20 | 0.20 | 99 | 999.8 | |
| 20260905191053 | 13 | 0.0 | 0.0 | 0.00 | 0.23 | 0.20 | 99 | 999.8 | |
| 20260905190050 | 13 | 0.0 | 0.0 | 0.00 | 0.23 | 0.20 | 99 | 999.8 | |
| 20260905185047 | 13 | 0.0 | 0.0 | 0.00 | 0.23 | 0.20 | 99 | 999.6 | |
| 20260905184104 | 13 | 0.0 | 0.0 | 0.00 | 0.23 | 0.20 | 99 | 999.6 | |
| 20260905183041 | 13 | 0.0 | 0.0 | 0.00 | 0.23 | 0.20 | 99 | 999.4 | |
| 20260905182038 | 13 | 0.0 | 0.0 | 0.00 | 0.23 | 0.20 | 99 | 999.4 | |
| 20260905181035 | 13 | 0.0 | 0.0 | 0.00 | 0.23 | 0.20 | 99 | 999.4 | |
| 20260905180051 | 13 | 0.0 | 0.0 | 0.00 | 0.23 | 0.20 | 99 | 999.3 | |
| 20260905175028 | 13 | 0.0 | 0.0 | 0.00 | 0.23 | 0.20 | 99 | 999.3 | |
| 20260905174025 | 12 | 0.0 | 0.0 | 0.00 | 0.23 | 0.20 | 99 | 999.3 | |
| 20260905173022 | 12 | 0.0 | 0.0 | 0.03 | 0.23 | 0.20 | 99 | 999.3 | |
| 20260905172019 | 13 | 0.0 | 0.0 | 0.03 | 0.23 | 0.20 | 99 | 999.0 | |
| 20260905171016 | 13 | 0.0 | 0.0 | 0.03 | 0.23 | 0.20 | 99 | 999.0 | |
| 20260905170133 | 13 | 0.0 | 0.0 | 0.03 | 0.23 | 0.20 | 97 | 999.0 | |
| 20260905165110 | 14 | 0.0 | 0.0 | 0.03 | 0.46 | 0.20 | 92 | 999.1 | |
| 20260905164127 | 16 | 0.0 | 1.6 | 0.03 | 0.51 | 0.20 | 90 | 998.5 | |
| 20260905163103 | 17 | 0.0 | 0.0 | 0.00 | 0.48 | 0.18 | 83 | 997.8 | |
| 20260905162100 | 17 | 0.0 | 0.0 | 0.00 | 0.48 | 0.18 | 84 | 998.0 | |
| 20260905161118 | 17 | 0.0 | 0.0 | 0.00 | 0.48 | 0.18 | 85 | 997.9 | |
| 20260905160054 | 16 | 0.0 | 0.0 | 0.00 | 0.48 | 0.18 | 85 | 997.7 | |
| 20260905155051 | 16 | 0.0 | 0.0 | 0.00 | 0.48 | 0.18 | 83 | 997.8 | |
| 20260905154042 | 17 | 0.0 | 0.0 | 0.00 | 0.48 | 0.18 | 81 | 997.9 | |
| 20260905153059 | 17 | 0.0 | 0.0 | 0.00 | 0.48 | 0.18 | 80 | 997.8 | |
| 20260905152030 | 19 | 0.0 | 0.0 | 0.00 | 0.48 | 0.18 | 71 | 997.8 | |
| 20260905151027 | 20 | 0.0 | 0.0 | 0.00 | 0.48 | 0.18 | 68 | 997.7 | |
| 20260905150018 | 20 | 0.0 | 0.0 | 0.00 | 0.48 | 0.18 | 66 | 997.5 | |
| 20260905145115 | 19 | 0.0 | 0.0 | 0.00 | 0.48 | 0.18 | 68 | 997.5 | |
| 20260905144106 | 20 | 0.0 | 0.0 | 0.00 | 0.48 | 0.18 | 68 | 997.6 | |
| 20260905143103 | 21 | 0.0 | 0.0 | 0.00 | 0.48 | 0.18 | 65 | 997.5 | |
| 20260905142054 | 21 | 0.0 | 0.0 | 0.00 | 0.48 | 0.18 | 63 | 997.6 | |
| 20260905141050 | 21 | 0.0 | 0.0 | 0.00 | 0.48 | 0.18 | 62 | 997.6 | |
| 20260905140041 | 21 | 0.0 | 0.0 | 0.00 | 0.48 | 0.18 | 64 | 997.5 | |
| 20260905135038 | 20 | 0.0 | 0.0 | 0.00 | 0.48 | 0.18 | 69 | 997.7 | |
| 20260905134050 | 21 | 0.0 | 0.0 | 0.00 | 0.48 | 0.18 | 68 | 997.9 | |
| 20260905133028 | 20 | 0.0 | 0.0 | 0.00 | 0.48 | 0.18 | 74 | 997.9 | |
| 20260905132018 | 18 | 0.0 | 0.0 | 0.00 | 0.48 | 0.18 | 79 | 997.8 | |
| 20260905131115 | 17 | 0.0 | 0.0 | 0.00 | 0.48 | 0.18 | 77 | 997.8 | |
| 20260905130106 | 17 | 0.0 | 0.0 | 0.00 | 0.48 | 0.18 | 77 | 997.8 | |
| 20260905125103 | 18 | 0.0 | 0.0 | 0.00 | 0.48 | 0.18 | 81 | 997.8 | |
| 20260905124054 | 18 | 0.0 | 0.0 | 0.00 | 0.48 | 0.18 | 78 | 997.7 | |
| 20260905123111 | 18 | 0.0 | 0.0 | 0.00 | 0.48 | 0.18 | 78 | 997.5 | |
| 20260905122041 | 19 | 0.0 | 0.0 | 0.00 | 0.48 | 0.18 | 74 | 997.5 | |
| 20260905121100 | 21 | 0.0 | 0.0 | 0.00 | 0.48 | 0.18 | 69 | 997.4 | |
| 20260905120050 | 21 | 0.0 | 0.0 | 0.00 | 0.48 | 0.18 | 68 | 997.3 | |
| 20260905115027 | 19 | 0.0 | 0.0 | 0.00 | 0.48 | 0.18 | 76 | 997.3 | |
| 20260905114018 | 19 | 0.0 | 0.0 | 0.00 | 0.48 | 0.18 | 72 | 997.5 | |
| 20260905113115 | 21 | 0.0 | 0.0 | 0.00 | 0.48 | 0.18 | 66 | 997.4 | |
| 20260905112106 | 21 | 0.0 | 0.0 | 0.00 | 0.48 | 0.18 | 66 | 997.4 | |
| 20260905111103 | 20 | 0.0 | 0.0 | 0.00 | 0.48 | 0.18 | 67 | 997.5 | |
| 20260905105050 | 21 | 0.0 | 0.0 | 0.00 | 0.48 | 0.18 | 70 | 997.5 | |
| 20260905104041 | 20 | 0.0 | 0.0 | 0.00 | 0.48 | 0.18 | 72 | 997.4 | |
| 20260905103038 | 19 | 0.0 | 0.0 | 0.00 | 0.48 | 0.18 | 73 | 997.5 | |
| 20260905102030 | 19 | 0.0 | 0.0 | 0.00 | 0.48 | 0.18 | 76 | 997.4 | |
| 20260905100018 | 18 | 0.0 | 0.0 | 0.00 | 0.48 | 0.18 | 78 | 997.4 | |
| 20260905095115 | 18 | 0.0 | 0.0 | 0.00 | 0.48 | 0.18 | 76 | 997.4 | |
| 20260905094106 | 20 | 0.0 | 0.0 | 0.00 | 0.48 | 0.18 | 73 | 997.3 | |
| 20260905093103 | 19 | 0.0 | 0.0 | 0.00 | 0.48 | 0.18 | 73 | 997.4 | |
| 20260905092054 | 19 | 0.0 | 0.0 | 0.00 | 0.48 | 0.18 | 72 | 997.2 | |
| 20260905091051 | 19 | 0.0 | 0.0 | 0.00 | 0.48 | 0.18 | 73 | 997.1 | |
| 20260905090041 | 19 | 0.0 | 0.0 | 0.00 | 0.48 | 0.18 | 73 | 997.0 | |
| 20260905085058 | 18 | 0.0 | 0.0 | 0.00 | 0.48 | 0.18 | 77 | 996.9 | |
| 20260905084030 | 19 | 0.0 | 0.0 | 0.00 | 0.48 | 0.18 | 74 | 997.0 | |
| 20260905083027 | 18 | 0.0 | 0.0 | 0.00 | 0.48 | 0.18 | 77 | 996.7 | |
| 20260905082018 | 18 | 0.0 | 0.0 | 0.00 | 0.48 | 0.18 | 79 | 996.7 | |
| 20260905081115 | 17 | 0.0 | 0.0 | 0.00 | 0.48 | 0.18 | 81 | 996.6 | |
| 20260905080106 | 17 | 0.0 | 0.0 | 0.00 | 0.48 | 0.18 | 83 | 996.7 | |
| 20260905075123 | 17 | 0.0 | 1.6 | 0.00 | 0.48 | 0.18 | 83 | 996.4 | |
| 20260905074054 | 16 | 0.0 | 0.0 | 0.00 | 0.48 | 0.18 | 85 | 996.3 | |
| 20260905073050 | 16 | 0.0 | 0.0 | 0.00 | 0.48 | 0.18 | 86 | 996.2 | |
| 20260905072102 | 16 | 0.0 | 0.0 | 0.00 | 0.48 | 0.18 | 88 | 996.2 | |
| 20260905071038 | 16 | 0.0 | 0.0 | 0.00 | 0.48 | 0.18 | 89 | 996.0 | |
| 20260905070030 | 16 | 0.0 | 0.0 | 0.00 | 0.48 | 0.18 | 89 | 995.9 | |
| 20260905065027 | 16 | 0.0 | 0.0 | 0.00 | 0.48 | 0.18 | 89 | 995.9 | |
| 20260905064018 | 16 | 0.0 | 0.0 | 0.00 | 0.48 | 0.18 | 90 | 995.8 | |
| 20260905063115 | 16 | 0.0 | 0.0 | 0.00 | 0.48 | 0.18 | 91 | 995.7 | |
| 20260905062106 | 16 | 0.0 | 0.0 | 0.00 | 0.48 | 0.18 | 91 | 995.6 | |
| 20260905061103 | 16 | 0.0 | 0.0 | 0.00 | 0.48 | 0.18 | 90 | 995.4 | |
| 20260905060054 | 16 | 0.0 | 0.0 | 0.00 | 0.48 | 0.18 | 91 | 995.3 | |
| 20260905055051 | 16 | 0.0 | 0.0 | 0.00 | 0.48 | 0.18 | 94 | 995.3 | |
| 20260905054041 | 16 | 0.0 | 0.0 | 0.00 | 0.48 | 0.18 | 94 | 995.1 | |
| 20260905053038 | 16 | 0.0 | 0.0 | 0.00 | 0.48 | 0.18 | 93 | 994.9 | |
| 20260905052030 | 16 | 0.0 | 0.0 | 0.00 | 0.48 | 0.18 | 96 | 994.9 | |
| 20260905051047 | 15 | 0.0 | 0.0 | 0.00 | 0.48 | 0.18 | 99 | 994.7 | |
| 20260905050018 | 15 | 0.0 | 0.0 | 0.00 | 0.48 | 0.18 | 99 | 994.7 | |
| 20260905045135 | 15 | 0.0 | 0.0 | 0.00 | 0.48 | 0.18 | 99 | 994.4 | |
| 20260905044106 | 14 | 0.0 | 0.0 | 0.00 | 0.48 | 0.18 | 99 | 994.1 | |
| 20260905043103 | 14 | 0.0 | 0.0 | 0.00 | 0.48 | 0.18 | 99 | 994.1 | |
| 20260905042114 | 14 | 0.0 | 0.0 | 0.00 | 0.48 | 0.18 | 99 | 994.0 | |
| 20260905041050 | 14 | 0.0 | 0.0 | 0.00 | 0.48 | 0.18 | 99 | 993.9 | |
| 20260905040041 | 14 | 0.0 | 0.0 | 0.00 | 0.48 | 0.18 | 99 | 993.9 | |
| 20260905035058 | 14 | 0.0 | 0.0 | 0.00 | 0.48 | 0.18 | 97 | 993.8 | |
| 20260905034030 | 14 | 0.0 | 0.0 | 0.00 | 0.48 | 0.18 | 97 | 993.7 | |
| 20260905033027 | 14 | 0.0 | 0.0 | 0.00 | 0.48 | 0.18 | 97 | 993.7 | |
| 20260905032018 | 14 | 0.0 | 0.0 | 0.00 | 0.48 | 0.18 | 98 | 993.6 | |
| 20260905031115 | 14 | 0.0 | 0.0 | 0.00 | 0.48 | 0.18 | 97 | 993.6 | |
| 20260905030106 | 14 | 0.0 | 0.0 | 0.00 | 0.48 | 0.18 | 97 | 993.7 | |
| 20260905025103 | 14 | 0.0 | 0.0 | 0.00 | 0.48 | 0.18 | 96 | 993.5 | |
| 20260905024053 | 14 | 0.0 | 0.0 | 0.00 | 0.48 | 0.18 | 96 | 993.4 | |
| 20260905023050 | 14 | 0.0 | 0.0 | 0.00 | 0.48 | 0.18 | 96 | 993.5 | |
| 20260905022042 | 14 | 0.0 | 0.0 | 0.00 | 0.48 | 0.18 | 97 | 993.4 | |
| 20260905021038 | 14 | 0.0 | 0.0 | 0.00 | 0.48 | 0.18 | 98 | 993.3 | |
| 20260905020030 | 14 | 0.0 | 0.0 | 0.00 | 0.48 | 0.18 | 98 | 993.1 | |
| 20260905015027 | 14 | 0.0 | 0.0 | 0.00 | 0.48 | 0.18 | 98 | 992.9 | |
| 20260905014018 | 14 | 0.0 | 0.0 | 0.00 | 0.48 | 0.18 | 99 | 992.8 | |
| 20260905013115 | 15 | 0.0 | 0.0 | 0.00 | 0.48 | 0.18 | 99 | 992.9 | |
| 20260905012106 | 15 | 0.0 | 0.0 | 0.00 | 0.48 | 0.18 | 99 | 992.8 | |
| 20260905011103 | 15 | 0.0 | 0.0 | 0.18 | 0.48 | 0.18 | 99 | 992.4 | |
| 20260905010054 | 15 | 0.0 | 0.0 | 0.18 | 0.48 | 0.18 | 99 | 992.3 | |
| 20260905005050 | 15 | 0.0 | 0.0 | 0.18 | 0.48 | 0.18 | 99 | 992.0 | |
| 20260905004102 | 15 | 0.0 | 0.0 | 0.18 | 0.48 | 0.18 | 99 | 991.8 | |
| 20260905003038 | 15 | 0.0 | 1.6 | 0.18 | 0.48 | 0.18 | 99 | 991.7 | |
| 20260905002030 | 16 | 0.0 | 0.0 | 0.18 | 0.48 | 0.18 | 99 | 991.6 | |
| 20260905001027 | 16 | 0.0 | 0.0 | 0.00 | 0.30 | 0.00 | 99 | 991.6 | |
| 20260905000018 | 16 | 0.0 | 0.0 | 0.00 | 0.30 | 0.00 | 99 | 991.5 | |
| 20260904235115 | 16 | 0.0 | 0.0 | 0.00 | 0.30 | 0.00 | 99 | 991.1 | |
| 20260904234106 | 16 | 0.0 | 0.0 | 0.00 | 0.30 | 0.00 | 99 | 990.8 | |
| 20260904233103 | 16 | 0.0 | 0.0 | 0.00 | 0.30 | 0.00 | 99 | 990.9 | |
| 20260904232054 | 17 | 0.0 | 0.0 | 0.00 | 0.30 | 0.00 | 99 | 990.9 | |
| 20260904231111 | 17 | 0.0 | 0.0 | 0.00 | 0.30 | 0.00 | 99 | 990.7 | |
| 20260904225059 | 17 | 0.0 | 0.0 | 0.00 | 0.30 | 0.00 | 99 | 990.5 | |
| 20260904224030 | 17 | 0.0 | 0.0 | 0.00 | 0.30 | 0.00 | 99 | 990.3 | |
| 20260904223027 | 17 | 0.0 | 0.0 | 0.00 | 0.30 | 0.00 | 99 | 990.1 | |
| 20260904222018 | 17 | 0.0 | 0.0 | 0.00 | 0.30 | 0.00 | 99 | 989.9 | |
| 20260904221115 | 17 | 0.0 | 0.0 | 0.00 | 0.30 | 0.00 | 99 | 989.9 | |
| 20260904220106 | 17 | 0.0 | 0.0 | 0.00 | 0.30 | 0.00 | 99 | 989.7 | |
| 20260904215103 | 18 | 0.0 | 0.0 | 0.00 | 0.30 | 0.30 | 99 | 989.5 | |
| 20260904214054 | 18 | 0.0 | 0.0 | 0.00 | 0.30 | 0.30 | 99 | 989.4 | |
| 20260904213110 | 18 | 0.0 | 0.0 | 0.00 | 0.30 | 0.30 | 99 | 989.4 |